Regional Weather Roundup
Issued by NWS Portland, ME

Home | Current Version | Previous Version | Text Only | Print | Product List | Glossary On
Versions: 1 2 3 4 5 6 7 8 9 10 11 12 13 14 15 16 17 18 19 20 21 22 23 24 25 26 27 28 29 30 31 32 33 34 35 36 37 38 39 40 41 42 43 44 45 46 47 48 49 50
000
ASUS41 KGYX 050310
RWRGYX
WEATHER ROUNDUP FOR MAINE AND NEW HAMPSHIRE
NATIONAL WEATHER SERVICE GRAY ME
1000 PM EST WED MAR 04 2015

MEZ002-005-006-010-012-015-018-020-021-024-026-027-029-050400-
MAINE

CITY           SKY/WX    TMP DP  RH WIND       PRES   REMARKS
PORTLAND       CLOUDY    40  25  55 SW7       29.74F
SANFORD        CLOUDY    37  25  60 W12       29.77R
BAR HARBOR     CLOUDY    30  30 100 CALM      29.70F
WISCASSET      CLOUDY    39  25  57 VRB6      29.72F
ROCKLAND       CLOUDY    37  28  70 SW7       29.69F
FRYEBURG       CLOUDY    37  22  54 SW8       29.73S
LEWISTONAUBURN CLOUDY    37  23  56 SW8       29.71S
AUGUSTA        CLOUDY    35  24  64 CALM      29.71F
WATERVILLE     CLOUDY    34  21  60 CALM      29.68S
BANGOR         CLOUDY    27  22  81 N3        29.70F
GREENVILLE       N/A     26  15  63 VRB3      29.60F
MILLINOCKET    MOCLDY    31  16  54 W10G18    29.68F
HOULTON        PTCLDY    27  15  61 S7        29.64R
PRESQUE ISLE   PTCLDY    27  10  50 S9        29.60S
FRENCHVILLE    FLURRIES  24  19  81 W12       29.53F WCI  13
CARIBOU        PTCLDY    25  13  60 S6        29.57F
$$

NHZ002-005-008-009-011-012-014-050400-
NEW HAMPSHIRE

CITY           SKY/WX    TMP DP  RH WIND       PRES   REMARKS
PORTSMOUTH     CLOUDY    38  24  57 W8        29.77F
ROCHESTER      CLOUDY    37  22  54 VRB6      29.78F
NASHUA         CLOUDY    39  26  60 W3        29.83F
MANCHESTER     CLOUDY    38  26  62 W7        29.80S
CONCORD        CLOUDY    37  21  52 W7        29.80S
LACONIA        CLOUDY    36  21  55 SW10      29.76R
PLYMOUTH       FAIR      36  25  64 W12G21    29.78R
BERLIN         CLOUDY    32  14  47 W9        29.70S
WHITEFIELD     CLOUDY    32  17  54 SW9       29.74R
JAFFREY        CLOUDY    34  24  67 W9        29.79S
KEENE          CLOUDY    36  27  69 CALM      29.84R
LEBANON        CLOUDY    35  19  52 W3        29.80R
MT WASHINGTON  BLWGSNOW   9   9 100 W69G78      N/A  VSB 0   WCI -22
$$

VTZ005-007-008-050400-
VERMONT

CITY           SKY/WX    TMP DP  RH WIND       PRES   REMARKS
ST JOHNSBURY     N/A     33  17  51 MISG      29.77R
MONTPELIER     CLOUDY    30  14  51 W9        29.81R
BURLINGTON     CLOUDY    33  16  49 W9        29.83R
$$

MAZ007-012-024-CTZ003-RIZ002-NYZ038-NYZ072-050400-
SOUTHERN NEW ENGLAND AND NY

CITY           SKY/WX    TMP DP  RH WIND       PRES   REMARKS
BOSTON         CLOUDY    38  30  73 SW9       29.84S
WORCESTER      CLOUDY    35  27  72 W10       29.81R
NANTUCKET      CLOUDY    37  35  92 W10       29.89R FOG
PROVIDENCE     MOCLDY    36  34  92 SE5       29.87R FOG
HARTFORD       CLOUDY    39  31  72 S3        29.85S
ALBANY         CLOUDY    35  22  58 NW13      29.92R
NEW YORK CITY  LGT RAIN  43  39  86 SW8       29.91R FOG
$$

ANZ081-ANZ082-ANZ150-NHZ014-MEZ023>029-050400-
COASTAL MARINE OBSERVATIONS

STATION/POSITION TIME  TEMP    WIND        PRES    WAVE
                       AIR SEA DIR/SP/G            HT/PER
                 (UTC) (F)     (DEG/KT/KT) (MB)    (FT/S)
MOUNT DESERT ROC 0200   40                 1005.7R
MATINICUS ROCK   0300   40     260/ 22/ 24 1005.8F
WELLS            0200   40     280/  3/  6 1008.0R
ISLE OF SHOALS   0300   39     240/ 17/ 17 1008.0F
JEFFREYS LEDGE   0221      39                N/A     5/ 9
$$

.............KEY..............
   WCI - WIND CHILL
   TC  - TEMPERATURE IN CELSIUS
   VSB - VISIBILITY IN MILES
   HX  - HEAT INDEX
   FAIR- INDICATES FEW OR NO CLOUDS BELOW 12,000 FT, WITH NO
         SIGNIFICANT WEATHER AND/OR OBSTRUCTIONS TO VISIBILITY.




USA.gov is the U.S. government's official web portal to all federal, state and local government web resources and services.